Location: Northcutt
(34.7304°N, 84.4305°W)
Time: 03:05:39
(UTC+00:00)

Vanguard 2 - Pass Details

Date: 09 October 2022
Orbit: 553 x 2933 km, 32.9° (Epoch: 05 December)

Event Time Altitude Azimuth Distance (km) Brightness Sun altitude
Rises 16:23:08 0° 240° (WSW) 3,581 11.0 46.3°
Reaches altitude 10° 16:25:17 10° 236° (WSW) 2,856 10.7 46.5°
Maximum altitude 16:32:17 61° 158° (SSE) 1,634 11.3 47.0°
Drops below altitude 10° 16:44:12 10° 82° (E) 4,706 11.7 47.7°
Sets 16:48:48 0° 80° (E) 6,056 12.1 48.0°
